Вернуться в каталог

COSMOS 1275 DEB

АктивенPO
NORAD 20100·DEBRIS·🇷🇺 Russia

Запущен Jun 4, 1981 с Plesetsk Cosmodrome

Loading…

Ближайшие Пролёты (ближайшие 24 часа)

TLE

СвежийSource: Space-Track

Эпоха: Sep 14, 2026, 06:27 UTC

1 20100U 81053ML  26257.26926249  .00000067  00000-0  83704-4 0  9991
2 20100  82.8981   6.0933 0172185 157.1511 231.6179 13.43334107867073

Отслеживайте COSMOS 1275 DEB в реальном времени с AllMySat

Download on the App Store